EW2826 Weather Reports


time (UTC)temp
C
wind
direction
speed
KPH
gust
KPH
rain 1hr
cm
rain 24hr
cm
rain mn
cm
humidity
%
barometer
mb
20260509013002 16 4 6.4 12.9 0.00 0.00 0.00 48 1028.8
20260509012002 16 28 8.0 16.1 0.00 0.00 0.00 49 1028.8
20260509011002 16 20 12.9 24.1 0.00 0.00 0.00 49 1028.9
20260509010002 16 86 8.0 14.5 0.00 0.00 0.00 50 1029.0
20260509005022 15 20 9.7 14.5 0.00 0.00 0.00 50 1029.0
20260509004001 15 50 4.8 12.9 0.00 0.00 0.00 50 1029.0
20260509003001 15 27 6.4 14.5 0.00 0.00 0.00 51 1028.8
20260509002001 15 29 6.4 12.9 0.00 0.00 0.00 52 1028.8
20260509001001 15 49 3.2 8.0 0.00 0.00 0.00 53 1028.8
20260509000001 14 23 6.4 12.9 0.00 0.00 0.00 54 1028.7
20260508235001 13 37 6.4 11.3 0.00 0.00 0.00 55 1028.6
20260508234001 13 89 6.4 14.5 0.00 0.00 0.00 56 1028.5
20260508233022 13 69 4.8 9.7 0.00 0.00 0.00 56 1028.5
20260508232023 13 72 3.2 9.7 0.00 0.00 0.00 56 1028.6
20260508231001 13 28 3.2 9.7 0.00 0.00 0.00 56 1028.5
20260508230001 13 58 4.8 11.3 0.00 0.00 0.00 56 1028.4
20260508225022 13 5 4.8 9.7 0.00 0.00 0.00 55 1028.4
20260508224001 13 18 4.8 9.7 0.00 0.00 0.00 54 1028.2
20260508223002 13 22 4.8 11.3 0.00 0.00 0.00 54 1028.1
20260508222002 13 16 4.8 9.7 0.00 0.00 0.00 53 1028.1
20260508221022 14 29 4.8 11.3 0.00 0.00 0.00 53 1028.0
20260508220002 14 12 3.2 8.0 0.00 0.00 0.00 52 1028.0
20260508215001 14 33 9.7 19.3 0.00 0.00 0.00 52 1027.9
20260508214001 14 40 6.4 12.9 0.00 0.00 0.00 52 1027.8
20260508213002 15 32 6.4 12.9 0.00 0.00 0.00 52 1027.7
20260508212001 15 25 8.0 12.9 0.00 0.00 0.00 51 1027.5
20260508211002 15 55 4.8 9.7 0.00 0.00 0.00 51 1027.5
20260508205022 15 27 4.8 22.5 0.00 0.00 0.00 50 1027.3
20260508204001 15 63 6.4 12.9 0.00 0.00 0.00 51 1027.2
20260508203001 15 76 4.8 9.7 0.00 0.00 0.00 51 1027.3
20260508202023 15 32 4.8 9.7 0.00 0.00 0.00 51 1027.3
20260508201001 15 97 4.8 9.7 0.00 0.00 0.00 50 1027.3
20260508200023 15 18 3.2 8.0 0.00 0.00 0.00 50 1027.3
20260508195001 15 6 3.2 9.7 0.00 0.00 0.00 50 1027.1
20260508194001 15 26 4.8 11.3 0.00 0.00 0.00 50 1027.1
20260508193022 15 59 4.8 12.9 0.00 0.00 0.00 49 1027.1
20260508192001 15 30 3.2 9.7 0.00 0.00 0.00 49 1027.1
20260508191001 15 64 3.2 4.8 0.00 0.00 0.00 49 1027.0
20260508190002 15 33 3.2 4.8 0.00 0.00 0.00 49 1027.1
20260508185002 15 79 4.8 9.7 0.00 0.00 0.00 48 1027.0
20260508184002 16 132 3.2 8.0 0.00 0.00 0.00 48 1027.1
20260508183001 16 69 6.4 12.9 0.00 0.00 0.00 47 1027.1
20260508182001 16 93 6.4 12.9 0.00 0.00 0.00 47 1027.1
20260508181023 16 53 6.4 16.1 0.00 0.00 0.00 47 1027.0
20260508180001 16 26 4.8 11.3 0.00 0.00 0.00 47 1027.0
20260508175001 16 52 4.8 9.7 0.00 0.00 0.00 47 1027.0
20260508174001 16 36 4.8 8.0 0.00 0.00 0.00 46 1026.9
20260508173001 16 61 6.4 14.5 0.00 0.00 0.00 45 1026.9
20260508172022 16 81 8.0 12.9 0.00 0.00 0.00 45 1027.0
20260508171001 16 28 6.4 12.9 0.00 0.00 0.00 45 1027.1
20260508170001 16 54 11.3 19.3 0.00 0.00 0.00 45 1027.0
20260508165001 17 45 4.8 9.7 0.00 0.00 0.00 45 1027.0
20260508164001 17 27 6.4 14.5 0.00 0.00 0.00 45 1026.9
20260508163001 17 57 3.2 8.0 0.00 0.00 0.00 45 1026.9
20260508162002 16 29 8.0 16.1 0.00 0.00 0.00 45 1026.8
20260508161001 17 57 4.8 11.3 0.00 0.00 0.00 45 1026.8
20260508160001 17 205 3.2 8.0 0.00 0.00 0.00 43 1026.8
20260508155002 17 50 6.4 11.3 0.00 0.00 0.00 43 1026.8
20260508154001 17 33 6.4 12.9 0.00 0.00 0.00 42 1026.9
20260508153002 17 101 4.8 9.7 0.00 0.00 0.00 42 1026.8
20260508152023 17 45 4.8 12.9 0.00 0.00 0.00 42 1026.8
20260508151002 17 35 3.2 9.7 0.00 0.00 0.00 42 1026.8
20260508150002 17 10 1.6 3.2 0.00 0.00 0.00 41 1026.9
20260508145001 17 2 3.2 9.7 0.00 0.00 0.00 41 1026.9
20260508144001 17 6 1.6 4.8 0.00 0.00 0.00 41 1027.0
20260508143001 17 75 1.6 8.0 0.00 0.00 0.00 41 1027.0
20260508141022 18 73 6.4 11.3 0.00 0.00 0.00 40 1027.1
20260508140002 18 44 4.8 16.1 0.00 0.00 0.00 41 1027.1
20260508135022 18 38 3.2 9.7 0.00 0.00 0.00 41 1027.1
20260508134001 18 35 4.8 9.7 0.00 0.00 0.00 42 1027.1
20260508132001 18 60 3.2 8.0 0.00 0.00 0.00 44 1027.1
20260508131001 17 28 4.8 11.3 0.00 0.00 0.00 45 1027.1
20260508130003 17 36 1.6 3.2 0.00 0.00 0.00 47 1027.1
20260508125001 17 130 1.6 1.6 0.00 0.00 0.00 48 1027.0
20260508124022 17 92 3.2 4.8 0.00 0.00 0.00 47 1027.0
20260508123002 17 73 1.6 4.8 0.00 0.00 0.00 46 1026.9
20260508122001 18 58 1.6 3.2 0.00 0.00 0.00 47 1026.8
20260508121003 17 82 3.2 4.8 0.00 0.00 0.00 46 1026.9
20260508120002 17 20 1.6 4.8 0.00 0.00 0.00 47 1027.0
20260508115001 17 87 3.2 4.8 0.00 0.00 0.00 47 1026.9
20260508114001 17 88 1.6 3.2 0.00 0.00 0.00 48 1026.9
20260508113001 18 101 1.6 1.6 0.00 0.00 0.00 47 1026.9
20260508112023 18 159 1.6 3.2 0.00 0.00 0.00 47 1026.9
20260508111002 18 70 1.6 3.2 0.00 0.00 0.00 46 1026.9
20260508110002 18 87 6.4 9.7 0.00 0.00 0.00 45 1026.9
20260508105001 18 112 1.6 1.6 0.00 0.00 0.00 44 1027.0
20260508104002 19 83 4.8 9.7 0.00 0.00 0.00 44 1027.0
20260508103003 19 73 3.2 4.8 0.00 0.00 0.00 44 1026.8
20260508102001 20 95 3.2 4.8 0.00 0.00 0.00 43 1026.8
20260508101001 20 87 6.4 11.3 0.00 0.00 0.00 42 1026.8
20260508100001 20 84 9.7 16.1 0.00 0.00 0.00 42 1026.7
20260508095001 20 80 6.4 12.9 0.00 0.00 0.00 41 1026.7
20260508094002 20 71 6.4 12.9 0.00 0.00 0.00 41 1026.6
20260508093001 21 80 8.0 14.5 0.00 0.00 0.00 41 1026.5
20260508092002 21 75 4.8 11.3 0.00 0.00 0.00 40 1026.4
20260508091023 21 80 6.4 19.3 0.00 0.00 0.00 40 1026.4
20260508090001 21 74 6.4 12.9 0.00 0.00 0.00 39 1026.3
20260508085001 21 83 8.0 16.1 0.00 0.00 0.00 39 1026.2
20260508084002 21 77 6.4 9.7 0.00 0.00 0.00 39 1026.2
20260508083002 22 83 6.4 11.3 0.00 0.00 0.00 39 1026.2
20260508082002 22 69 6.4 14.5 0.00 0.00 0.00 39 1026.2
20260508081001 22 81 9.7 20.9 0.00 0.00 0.00 38 1026.2
20260508080001 22 90 6.4 14.5 0.00 0.00 0.00 37 1026.2
20260508075001 22 54 4.8 11.3 0.00 0.00 0.00 38 1026.2
20260508074022 22 75 8.0 12.9 0.00 0.00 0.00 39 1026.2
20260508073001 22 60 6.4 11.3 0.00 0.00 0.00 39 1026.2
20260508072001 22 20 11.3 19.3 0.00 0.00 0.00 38 1026.2
20260508071001 22 66 6.4 14.5 0.00 0.00 0.00 38 1026.2
20260508070001 22 75 8.0 14.5 0.00 0.00 0.00 39 1026.2
20260508065022 22 79 12.9 22.5 0.00 0.00 0.00 38 1026.3
20260508064002 22 77 8.0 12.9 0.00 0.00 0.00 38 1026.4
20260508063001 22 72 8.0 12.9 0.00 0.00 0.00 38 1026.4
20260508062001 22 90 9.7 19.3 0.00 0.00 0.00 40 1026.5
20260508061002 22 81 8.0 12.9 0.00 0.00 0.00 40 1026.6
20260508060002 22 84 9.7 16.1 0.00 0.00 0.00 39 1026.8
20260508055022 22 69 9.7 19.3 0.00 0.00 0.00 40 1026.9
20260508054022 22 81 11.3 20.9 0.00 0.00 0.00 41 1026.9
20260508053001 22 79 8.0 11.3 0.00 0.00 0.00 42 1026.9
20260508052023 22 75 6.4 11.3 0.00 0.00 0.00 43 1027.0
20260508051001 22 41 4.8 11.3 0.00 0.00 0.00 43 1027.3
20260508050002 21 77 9.7 16.1 0.00 0.00 0.00 44 1027.5
20260508045001 21 67 8.0 19.3 0.00 0.00 0.00 45 1027.5
20260508044022 21 39 4.8 11.3 0.00 0.00 0.00 45 1027.7
20260508043002 21 96 4.8 11.3 0.00 0.00 0.00 47 1027.9
20260508042002 21 84 11.3 19.3 0.00 0.00 0.00 47 1028.2
20260508041002 21 80 6.4 12.9 0.00 0.00 0.00 47 1028.5
20260508040001 21 29 11.3 20.9 0.00 0.00 0.00 47 1028.6
20260508035001 21 80 9.7 19.3 0.00 0.00 0.00 47 1028.9
20260508034002 20 62 6.4 20.9 0.00 0.00 0.00 48 1029.0
20260508033023 20 99 6.4 16.1 0.00 0.00 0.00 48 1029.2
20260508032001 20 189 6.4 20.9 0.00 0.00 0.00 49 1029.5
20260508031001 20 11 8.0 14.5 0.00 0.00 0.00 50 1029.6
20260508030002 20 29 8.0 14.5 0.00 0.00 0.00 50 1029.8
20260508025002 20 37 9.7 19.3 0.00 0.00 0.00 51 1029.9
20260508024023 19 36 6.4 14.5 0.00 0.00 0.00 51 1030.0
20260508023022 19 99 11.3 27.4 0.00 0.00 0.00 50 1030.0
20260508022001 19 73 11.3 19.3 0.00 0.00 0.00 50 1030.0
20260508021001 19 31 8.0 16.1 0.00 0.00 0.00 50 1030.1
20260508020002 18 22 8.0 16.1 0.00 0.00 0.00 51 1030.1
20260508015002 18 40 4.8 11.3 0.00 0.00 0.00 52 1030.3
20260508014001 18 36 6.4 14.5 0.00 0.00 0.00 53 1030.5